User: anonymous   Login
Location: Fort Wayne
(41.1310°N, 85.1290°W)
Time: 13:01:49
(UTC-05:00)
Language:

Cosmos 2219 Rocket - Orbit

View from above orbital plane
View from above orbital plane
View from above satellite
View from above satellite

Ground track
Ground track

The orbit data is extracted from the following two-line orbital elements,

1 22220U 92076B   16341.52915705  .00000077  00000-0  62517-4 0  9990
2 22220  71.0002 104.7814 0014055 215.1863 215.4518 14.16409466243495
Epoch (UTC): 06 December 2016 12:41:59
Eccentricity: 0.0014055
inclination: 71.0002°
perigee height: 827 km
apogee height: 847 km
right ascension of ascending node: 104.7814°
argument of perigee: 215.1863°
revolutions per day: 14.16409466
mean anomaly at epoch: 215.4518°
orbit number at epoch: 24349

The dashed part of the orbit path shows where the satellite is in the earth's shadow,  

DLR